Regional Weather Roundup
Issued by NWS

Home | Current Version | Previous Version | Graphics & Text | Print | Product List | Glossary On
Versions: 1 2 3 4 5 6 7 8 9 10 11 12 13 14 15 16 17 18 19 20 21 22 23 24 25 26 27 28 29 30 31 32 33 34 35 36 37 38 39 40 41 42 43 44 45 46 47 48 49 50
075
ASUS43 KOAX 091910
RWRNE

WEATHER ROUNDUP FOR NEBRASKA
NATIONAL WEATHER SERVICE OMAHA NE
100 PM CST TUE FEB 09 2016

NOTES: SATELLITE DATA IS BEING USED TO AUGMENT CLOUD COVER ABOVE
       12000 FEET.
       "FAIR" INDICATES FEW OR NO CLOUDS BELOW 12,000 FEET WITH NO
       SIGNIFICANT WEATHER AND/OR OBSTRUCTIONS TO VISIBILITY.

  * THESE STATIONS DO NOT REPORT WEATHER SUCH AS RAIN...SNOW OR FOG.

NEZ001>004-019>022-054>056-092000-
NEBRASKA PANHANDLE

CITY           SKY/WX    TMP DP  RH WIND       PRES   REMARKS
SCOTTSBLUFF    SUNNY     48  31  51 NW14      30.26F
ALLIANCE       CLOUDY    36  31  82 W12       30.22F WCI  28
CHADRON        CLOUDY    47  31  53 NW16G24   30.21F
KIMBALL        SUNNY     44  29  56 NW16      30.28F
SIDNEY         MOSUNNY   43  30  60 NW17      30.26F
$$

NEZ057>060-069>072-079>082-092000-
SOUTHWEST NEBRASKA

CITY           SKY/WX    TMP DP  RH WIND       PRES   REMARKS
NORTH PLATTE   CLOUDY    34  18  52 E3        30.26F
IMPERIAL       CLOUDY    39  26  59 W3        30.26F
LEXINGTON      CLOUDY    30  18  60 N7        30.29F WCI  23
MCCOOK         CLOUDY    36  20  52 NW5       30.28F WCI  32
OGALLALA       CLOUDY    37  26  66 CALM      30.25F
$$

NEZ005>010-023>029-035>040-094-092000-
NORTH CENTRAL NEBRASKA

CITY           SKY/WX    TMP DP  RH WIND       PRES   REMARKS
VALENTINE      CLOUDY    27  11  51 S7        30.24F WCI  19
AINSWORTH      CLOUDY    28  10  46 E3        30.24F
BROKEN BOW     CLOUDY    27   9  46 VRB5      30.27F WCI  22
O`NEILL        CLOUDY    27   9  46 W6        30.27F WCI  21
ORD            CLOUDY    27   9  46 N12       30.29F WCI  17
THEDFORD       CLOUDY    31  21  66 CALM      30.25F
$$

NEZ041-046>049-061>064-073>077-083>087-092000-
SOUTH CENTRAL NEBRASKA

CITY           SKY/WX    TMP DP  RH WIND       PRES   REMARKS
GRAND ISLAND   CLOUDY    25  11  55 N18       30.32F WCI  11
AURORA         CLOUDY    26  12  54 N17G28    30.30F WCI  14
HASTINGS       CLOUDY    27  12  53 N17       30.30F WCI  14
HEBRON         CLOUDY    27  12  53 N21G26    30.32S WCI  13
HOLDREGE       CLOUDY    28  17  63 N10       30.31S WCI  19
YORK           CLOUDY    25  10  54 N17G33    30.30S WCI  11
$$

NEZ011>018-030>034-042>045-092000-
NORTHEAST NEBRASKA

CITY           SKY/WX    TMP DP  RH WIND       PRES   REMARKS
NORFOLK        CLOUDY    25  10  53 NW17      30.25F WCI  12
ALBION         CLOUDY    26  10  50 N14       30.28F WCI  14
BLAIR          SUNNY     19   6  58 NW15G22   30.25S WCI   5
COLUMBUS *     CLOUDY    25   5  42 NW16      30.29F WCI  12
FREMONT        SUNNY     20   4  50 N14G20    30.28F WCI   7
TEKAMAH        SUNNY     29   7  39 N14       30.28F WCI  18
WAYNE          CLOUDY    22  10  61 NW10G17   30.26F WCI  11
$$

NEZ050>053-065>068-078-088>093-092000-
SOUTHEAST NEBRASKA

CITY           SKY/WX    TMP DP  RH WIND       PRES   REMARKS
LINCOLN        MOSUNNY   23   9  55 N16       30.31F WCI  10
OMAHA EPPLEY   MOSUNNY   20   8  60 N17       30.27F WCI   5
BEATRICE       SUNNY     25   8  49 N28G35    30.30S WCI   8
FALLS CITY     SUNNY     24   6  46 N18G29    30.25F WCI  10
NEBRASKA CITY  SUNNY     21   6  51 N20G28    30.25F WCI   6
PLATTSMOUTH    SUNNY     20   6  55 NW15      30.25F WCI   6
$$

NEZ044-045-051>053-067-092000-
OMAHA AREA

CITY           SKY/WX    TMP DP  RH WIND       PRES   REMARKS
OMAHA EPPLEY   MOSUNNY   20   8  60 N17       30.27F WCI   5
BLAIR          SUNNY     19   6  58 NW15G22   30.25S WCI   5
FREMONT        SUNNY     20   4  50 N14G20    30.28F WCI   7
MILLARD        SUNNY     20   5  51 NW14G21   30.28S WCI   7
OFFUTT AFB     SUNNY     22   5  47 NW16      30.26F WCI   8
PLATTSMOUTH    SUNNY     20   6  55 NW15      30.25F WCI   6
WAHOO          FAIR      20   8  60 N17G23    30.28F WCI   6
$$




USA.gov is the U.S. government's official web portal to all federal, state and local government web resources and services.